Télécharger nos applis :
Date Heure Temperature Direction Vent Rafales Pluie Pression Humidité Condition
VEN.
24
02:00 4°C 5 5 --- 1019 hPa 93% Peu nuageux
05:00 3°C 5 5 --- 1019 hPa 94% Ciel voilé
08:00 7°C 5 5 --- 1019 hPa 88% Ciel voilé
11:00 12°C 0 5 1 mm 1018 hPa 66% Ciel voilé
14:00 11°C 10 10 1.3 mm 1018 hPa 75% Ciel voilé
17:00 13°C 10 15 2.3 mm 1016 hPa 70% Peu nuageux
20:00 10°C 5 5 2.3 mm 1017 hPa 86% Peu nuageux
23:00 5°C 5 5 0.7 mm 1019 hPa 91% Averses de pluie faible
SAM.
25
02:00 4°C 5 5 0.4 mm 1019 hPa 92% Averses de pluie faible
05:00 3°C 5 5 --- 1019 hPa 93% Ensoleillé / Ciel clair
08:00 7°C 5 5 --- 1018 hPa 88% Ensoleillé / Ciel clair
11:00 13°C 5 5 --- 1017 hPa 56% Ciel voilé
14:00 16°C 10 10 --- 1017 hPa 47% Peu nuageux
17:00 15°C 10 10 --- 1016 hPa 55% Couvert
20:00 12°C 5 5 --- 1017 hPa 75% Couvert
23:00 8°C 5 5 --- 1018 hPa 87% Peu nuageux
DIM.
26
02:00 7°C 5 5 --- 1018 hPa 88% Peu nuageux
05:00 7°C 5 5 --- 1019 hPa 83% Peu nuageux
08:00 11°C 5 5 --- 1019 hPa 65% Peu nuageux
11:00 17°C 0 5 --- 1018 hPa 44% Couvert
14:00 18°C 10 10 --- 1018 hPa 46% Couvert
17:00 15°C 5 5 1 mm 1018 hPa 73% Averses de pluie faible
20:00 14°C 0 0 1.5 mm 1018 hPa 87% Averses de pluie faible
23:00 10°C 5 5 5.2 mm 1020 hPa 97% Pluie
LUN.
27
02:00 9°C 5 5 3.7 mm 1019 hPa 97% Pluie
05:00 9°C 5 5 0.4 mm 1019 hPa 98% Brouillard / Brumeux
08:00 10°C 5 5 0.3 mm 1018 hPa 99% Brouillard / Brumeux
11:00 10°C 5 5 4.1 mm 1018 hPa 97% Pluie
14:00 10°C 5 5 5.7 mm 1018 hPa 96% Pluie
17:00 11°C 5 5 1.8 mm 1017 hPa 90% Averses de pluie faible
20:00 9°C 5 10 1.8 mm 1018 hPa 98% Averses de pluie faible
23:00 7°C 5 15 3.2 mm 1020 hPa 97% Pluie
MAR.
28
02:00 6°C 10 20 1.6 mm 1020 hPa 96% Averses de pluie faible
05:00 6°C 10 20 0.7 mm 1020 hPa 96% Averses de pluie faible
08:00 5°C 15 20 0.4 mm 1021 hPa 91% Peu nuageux
11:00 9°C 20 30 --- 1020 hPa 57% Ciel voilé
14:00 11°C 25 35 --- 1020 hPa 52% Ciel voilé
17:00 12°C 25 35 --- 1019 hPa 50% Ensoleillé / Ciel clair
20:00 9°C 20 20 --- 1019 hPa 65% Ciel voilé
23:00 7°C 15 25 --- 1021 hPa 73% Peu nuageux
MER.
29
02:00 5°C 15 20 --- 1021 hPa 86% Peu nuageux
05:00 5°C 15 15 --- 1021 hPa 91% Ciel voilé
08:00 7°C 15 15 --- 1021 hPa 78% Peu nuageux
11:00 12°C 15 15 --- 1020 hPa 55% Peu nuageux
14:00 15°C 20 30 --- 1019 hPa 44% Ciel voilé
17:00 15°C 20 30 --- 1018 hPa 46% Couvert
20:00 12°C 15 15 --- 1018 hPa 60% Couvert
23:00 7°C 10 15 --- 1020 hPa 75% Couvert
JEU.
30
02:00 6°C 10 15 --- 1020 hPa 96% Peu nuageux
05:00 5°C 10 10 --- 1019 hPa 98% Peu nuageux
08:00 8°C 5 10 --- 1019 hPa 87% Couvert
11:00 15°C 10 15 --- 1018 hPa 53% Couvert
14:00 17°C 10 15 --- 1016 hPa 44% Couvert
17:00 17°C 10 15 --- 1016 hPa 53% Couvert
20:00 13°C 5 10 --- 1016 hPa 81% Couvert
23:00 9°C 10 5 --- 1017 hPa 94% Peu nuageux
VEN.
31
02:00 8°C 10 10 --- 1017 hPa 94% Peu nuageux
05:00 10°C 5 15 --- 1016 hPa 94% Couvert
08:00 12°C 5 10 --- 1015 hPa 86% Couvert
11:00 16°C 10 15 --- 1015 hPa 57% Ciel voilé
14:00 19°C 15 15 --- 1014 hPa 43% Ciel voilé
17:00 18°C 15 20 --- 1014 hPa 49% Peu nuageux
20:00 14°C 10 15 --- 1015 hPa 73% Ciel voilé
23:00 9°C 10 10 --- 1017 hPa 97% Ensoleillé / Ciel clair
SAM.
01
02:00 8°C 10 10 --- 1017 hPa 98% Ensoleillé / Ciel clair
05:00 7°C 10 10 --- 1018 hPa 97% Ensoleillé / Ciel clair
08:00 10°C 5 10 --- 1018 hPa 86% Peu nuageux
11:00 15°C 10 10 --- 1017 hPa 59% Peu nuageux
14:00 17°C 10 10 --- 1017 hPa 53% Peu nuageux
17:00 17°C 10 15 --- 1016 hPa 52% Peu nuageux
20:00 14°C 10 20 --- 1017 hPa 69% Peu nuageux
23:00 9°C 10 10 --- 1019 hPa 87% Peu nuageux
DIM.
02
02:00 8°C 10 15 --- 1019 hPa 92% Couvert
05:00 7°C 10 15 --- 1019 hPa 97% Couvert
08:00 10°C 10 15 --- 1019 hPa 84% Couvert
11:00 10°C 15 25 --- 1019 hPa 78% Couvert
14:00 10°C 15 15 --- 1020 hPa 78% Couvert
17:00 12°C 20 30 0.1 mm 1018 hPa 65% Couvert
20:00 10°C 20 15 --- 1019 hPa 73% Couvert
23:00 8°C 15 20 --- 1020 hPa 82% Peu nuageux
LUN.
03
02:00 6°C 15 15 --- 1020 hPa 87% Peu nuageux